This is the latest recevied weather packets stored in our database for station/object KB0Y. If no packets are shown the sender has not sent any weather packets the latest 10 day(s).
| Time | Temp. | Humidity | Pressure | Rain* | Wind** | Luminosity | Snow |
|---|---|---|---|---|---|---|---|
| 1777936882 | 26.67° C | 43% | 1018.6 hPa | 0 mm | - | 51 W/m² | - |
| 1777936579 | 26.67° C | 46% | 1018.6 hPa | 0 mm | - | 57 W/m² | - |
| 1777936275 | 26.67° C | 39% | 1018.6 hPa | 0 mm | - | 89 W/m² | - |
| 1777935971 | 27.22° C | 38% | 1018.6 hPa | 0 mm | - | 274 W/m² | - |
| 1777935670 | 27.22° C | 39% | 1018.6 hPa | 0 mm | - | 290 W/m² | - |
| 1777935368 | 27.22° C | 39% | 1018.6 hPa | 0 mm | - | 304 W/m² | - |
| 1777935064 | 27.22° C | 39% | 1018.6 hPa | 0 mm | - | 318 W/m² | - |
| 1777934761 | 27.22° C | 39% | 1018.6 hPa | 0 mm | - | 332 W/m² | - |
| 1777934458 | 27.78° C | 40% | 1018.6 hPa | 0 mm | - | 347 W/m² | - |
| 1777934155 | 27.78° C | 38% | 1018.6 hPa | 0 mm | - | 365 W/m² | - |
| 1777933850 | 27.78° C | 39% | 1018.6 hPa | 0 mm | - | 368 W/m² | - |
| 1777933548 | 27.78° C | 42% | 1018.6 hPa | 0 mm | - | 383 W/m² | - |
| 1777933245 | 27.78° C | 40% | 1018.3 hPa | 0 mm | - | 392 W/m² | - |
| 1777932942 | 27.78° C | 40% | 1018.6 hPa | 0 mm | - | 349 W/m² | - |
| 1777932639 | 27.78° C | 42% | 1018.6 hPa | 0 mm | - | 418 W/m² | - |
| 1777932335 | 27.78° C | 39% | 1018.6 hPa | 0 mm | - | 427 W/m² | - |
| 1777932032 | 27.78° C | 38% | 1018.6 hPa | 0 mm | - | 433 W/m² | - |
| 1777931728 | 27.78° C | 39% | 1018.3 hPa | 0 mm | - | 439 W/m² | - |
| 1777931426 | 27.78° C | 38% | 1018.6 hPa | 0 mm | - | 387 W/m² | - |
| 1777931122 | 27.78° C | 38% | 1018.6 hPa | 0 mm | - | 462 W/m² | - |
| 1777930818 | 27.78° C | 39% | 1018.6 hPa | 0 mm | - | 469 W/m² | - |
| 1777930515 | 27.78° C | 37% | 1018.6 hPa | 0 mm | - | 472 W/m² | - |
| 1777930213 | 27.78° C | 38% | 1018.9 hPa | 0 mm | - | 478 W/m² | - |
| 1777929908 | 27.78° C | 38% | 1018.6 hPa | 0 mm | - | 487 W/m² | - |
| 1777929606 | 27.78° C | 40% | 1018.6 hPa | 0 mm | - | 485 W/m² | - |
* Rain latest hour (hover to see other rain measurements)
** Current wind speed in m/s (hover to see current wind gust speed)